Location: Unspecified
(0.0000°N, 0.0000°E)
Time: 04:25:07
(UTC+00:00)

deb Transit VBN-2 - Visible Passes

Search period start: 10 October 2024 00:00
Search period end: 20 October 2024 00:00
Orbit: 1036 x 1075 km, 89.9° (Epoch: 09 October)

Date Brightness Start Highest point End Pass type
(mag) Time Alt. Az. Time Alt. Az. Time Alt. Az.
10 Oct ? 03:27:13 10° SSE 03:33:43 55° E 03:40:12 10° N visible
10 Oct ? 05:17:00 10° WSW 05:19:30 12° W 05:21:59 10° WNW visible
11 Oct ? 02:33:07 10° ESE 02:36:53 16° E 02:40:39 10° NE visible
11 Oct ? 04:16:23 10° SSW 04:22:41 45° W 04:28:59 10° NNW visible
12 Oct ? 03:19:20 10° SSE 03:25:51 55° E 03:32:20 10° N visible
12 Oct ? 05:09:08 10° WSW 05:11:36 12° W 05:14:06 10° WNW visible
13 Oct ? 02:25:14 10° ESE 02:29:01 16° E 02:31:05 14° ENE visible
13 Oct ? 04:08:30 10° SSW 04:14:48 45° W 04:17:12 33° NW visible
14 Oct ? 03:11:27 10° SSE 03:17:58 56° E 03:17:58 56° E visible
14 Oct ? 05:01:15 10° WSW 05:03:44 12° W 05:04:13 12° W visible
15 Oct ? 02:17:20 10° ESE 02:19:31 15° ESE 02:19:31 15° ESE visible
15 Oct ? 04:00:37 10° SSW 04:05:49 42° WSW 04:05:49 42° WSW visible
16 Oct ? 03:03:33 10° SSE 03:07:43 38° SE 03:07:43 38° SE visible
16 Oct ? 04:53:23 10° WSW 04:54:02 11° WSW 04:54:02 11° WSW visible
17 Oct ? 02:09:26 10° ESE 02:09:47 11° ESE 02:09:47 11° ESE visible
17 Oct ? 03:52:43 10° SSW 03:56:06 29° SW 03:56:06 29° SW visible
18 Oct ? 02:55:39 10° SSE 02:58:17 25° SSE 02:58:17 25° SSE visible
19 Oct ? 03:44:48 10° SSW 03:46:54 21° SSW 03:46:54 21° SSW visible
